This is the latest recevied weather packets stored in our database for station/object W0AVQ. If no packets are shown the sender has not sent any weather packets the latest 10 day(s).
| Time | Temp. | Humidity | Pressure | Rain* | Wind** | Luminosity | Snow |
|---|---|---|---|---|---|---|---|
| 1777291641 | 18.33° C | 98% | 1011.4 hPa | 0 mm | - | 0 W/m² | - |
| 1777291339 | 18.89° C | 97% | 1011.5 hPa | 0 mm | - | 0 W/m² | - |
| 1777291035 | 18.89° C | 96% | 1011.6 hPa | 3.05 mm | - | 0 W/m² | - |
| 1777290732 | 18.33° C | 94% | 1011.6 hPa | 18.03 mm | - | 0 W/m² | - |
| 1777290428 | 18.89° C | 92% | 1011.4 hPa | 31.75 mm | - | 0 W/m² | - |
| 1777290123 | 20° C | 87% | 1012.7 hPa | 36.58 mm | - | 0 W/m² | - |
| 1777289821 | 21.11° C | 82% | 1012.3 hPa | 18.54 mm | - | 0 W/m² | - |
| 1777289516 | 21.11° C | 77% | 1011.1 hPa | 0 mm | - | 0 W/m² | - |
| 1777289213 | 21.11° C | 77% | 1010.9 hPa | 0 mm | - | 0 W/m² | - |
| 1777288910 | 21.11° C | 76% | 1010.8 hPa | 0 mm | - | 0 W/m² | - |
| 1777288606 | 21.11° C | 76% | 1010.7 hPa | 0 mm | - | 0 W/m² | - |
| 1777288303 | 21.11° C | 76% | 1011.1 hPa | 0 mm | - | 0 W/m² | - |
| 1777287999 | 21.67° C | 75% | 1011.1 hPa | 0 mm | - | 0 W/m² | - |
| 1777287697 | 21.67° C | 75% | 1010.8 hPa | 0 mm | - | 0 W/m² | - |
| 1777287392 | 21.67° C | 75% | 1010.9 hPa | 0 mm | - | 0 W/m² | - |
| 1777287088 | 21.67° C | 74% | 1010.8 hPa | 0 mm | - | 0 W/m² | - |
| 1777286786 | 21.67° C | 73% | 1010.7 hPa | 0 mm | - | 0 W/m² | - |
| 1777286483 | 21.67° C | 73% | 1010.7 hPa | 0 mm | - | 0 W/m² | - |
| 1777286180 | 21.67° C | 73% | 1011.1 hPa | 0 mm | - | 0 W/m² | - |
| 1777285878 | 21.11° C | 73% | 1010.9 hPa | 0 mm | - | 0 W/m² | - |
| 1777285575 | 21.11° C | 73% | 1011.1 hPa | 0 mm | - | 0 W/m² | - |
| 1777285272 | 21.11° C | 73% | 1010.9 hPa | 0 mm | - | 0 W/m² | - |
| 1777284969 | 21.11° C | 73% | 1010.6 hPa | 0 mm | - | 0 W/m² | - |
| 1777284666 | 21.11° C | 72% | 1010.8 hPa | 0 mm | - | 0 W/m² | - |
| 1777284363 | 21.11° C | 72% | 1009.8 hPa | 0 mm | - | 0 W/m² | - |
* Rain latest hour (hover to see other rain measurements)
** Current wind speed in m/s (hover to see current wind gust speed)